Location: Newark
(21.1700°N, 79.6500°E)
Time: 22:26:58
(UTC+00:00)

N. Korean satellite - Visible Passes

Search period start: 10 December 2019 00:00
Search period end: 20 December 2019 00:00
Orbit: 456 x 506 km, 97.2° (Epoch: 09 December)

Date Brightness Start Highest point End Pass type
(mag) Time Alt. Az. Time Alt. Az. Time Alt. Az.
10 Dec 6.4 00:25:31 10° N 00:28:59 77° WNW 00:32:24 10° SSW visible
10 Dec 8.6 12:23:38 10° SSW 12:27:02 35° W 12:30:28 10° NNW visible
11 Dec 8.1 00:00:21 10° NNE 00:03:34 36° E 00:06:44 10° SSE visible
11 Dec 9.8 23:36:06 10° ENE 23:38:05 15° E 23:40:04 10° SE visible
13 Dec 7.0 00:42:45 10° N 00:45:58 37° WNW 00:49:09 10° SW visible
13 Dec 9.7 12:41:24 10° SW 12:44:08 20° W 12:46:52 10° NW visible
14 Dec 6.6 00:17:10 10° NNE 00:20:36 75° E 00:24:00 10° S visible
14 Dec 8.8 23:52:12 10° NE 23:55:10 27° E 23:58:05 10° SSE visible
15 Dec 10.0 23:28:45 10° E 23:29:40 11° E 23:30:34 10° ESE visible
16 Dec 10.3 13:00:16 10° WSW 13:01:14 11° W 13:02:12 10° W visible
17 Dec 6.5 00:34:15 10° N 00:37:35 52° WNW 00:40:55 10° SSW visible
17 Dec 9.3 12:32:39 10° SSW 12:35:45 25° W 12:38:51 10° NW visible
18 Dec 7.3 00:08:50 10° NNE 00:12:11 53° E 00:15:31 10° S visible
18 Dec 9.3 23:44:09 10° NE 23:46:44 20° E 23:49:18 10° SSE visible
